This demonstration page uses our WeatherBlox Daily Observations layout. Learn more.

Left ArrowRight Arrow

38.88101, -77.10428

Hourly Observations for January 21, 2015

Temp ( °F °C ) Dew Point ( °F °C ) Humidity (%) Winds ( mph kmh ) Pressure ( in mb ) Visibility ( mi km ) Precip ( " mm )
12:52 am 00:52 Cloudy 35 1.7 27 -2.8 72 72 NNE 3 6 30.08 1019 10 16 N/A
1:52 am 01:52 Cloudy 36 2.2 28 -2.2 73 73 NNE 5 7 30.09 1019 10 16 N/A
2:52 am 02:52 Cloudy 36 2.2 28 -2.2 73 73 NNE 3 6 30.09 1019 9 14 N/A
4:52 am 04:52 Clear 35 1.7 28 -2.2 76 76 N 3 6 30.09 1019 7 11 N/A
5:52 am 05:52 Cloudy 35 1.7 29 -1.7 78 78 NE 3 6 30.09 1019 7 11 N/A
6:52 am 06:52 Cloudy 36 2.2 29 -1.7 76 76 NNE 8 13 30.10 1019 7 11 N/A
7:52 am 07:52 Cloudy with Haze 36 2.2 29 -1.7 76 76 NE 9 15 30.11 1020 5 8 N/A
8:52 am 08:52 Cloudy with Haze 37 2.8 29 -1.7 73 73 N 3 6 30.13 1020 6 10 N/A
9:52 am 09:52 Cloudy 37 2.8 27 -2.8 67 67 ENE 8 13 30.14 1021 8 13 N/A
10:52 am 10:52 Cloudy 38 3.3 28 -2.2 68 68 E 5 7 30.17 1022 9 14 N/A
11:26 am 11:26 Cloudy with Light Snow 39 4 27 -3 61 61 N N/A 30.18 1022 9 14 N/A
11:45 am 11:45 Cloudy with Light Snow 39 4 27 -3 61 61 N N/A 30.18 1022 7 11 N/A
11:52 am 11:52 Cloudy with Light Snow 38 3.3 27 -2.8 65 65 NE 5 7 30.16 1021 3 5 N/A
12:03 pm 12:03 Cloudy with Light Snow 37 3 28 -2 70 70 N N/A 30.15 1021 3 4 N/A
12:11 pm 12:11 Cloudy with Light Snow 37 3 28 -2 70 70 N N/A 30.15 1021 2 3 N/A
12:52 pm 12:52 Mostly Cloudy with Light Snow 36 2.2 30 -1.1 79 79 N N/A 30.14 1021 1 2 0.01 0.25
1:08 pm 13:08 Mostly Cloudy with Light Snow 36 2 30 -1 81 81 NNE 3 6 30.15 1021 1 1 N/A
1:33 pm 13:33 Mostly Cloudy with Snow 36 2 30 -1 81 81 N N/A 30.12 1020 1 1 0.02 0.51
1:52 pm 13:52 Cloudy with Snow 34 1.1 31 -0.6 89 89 NE 3 6 30.11 1020 1 1 0.05 1.27
2:12 pm 14:12 Cloudy with Light Rain/Snow 36 2 30 -1 81 81 NE 3 6 30.12 1020 1 1 N/A
2:20 pm 14:20 Cloudy with Light Rain/Snow 36 2 30 -1 81 81 ENE 5 7 30.12 1020 1 2 N/A
2:30 pm 14:30 Cloudy with Light Rain 36 2 30 -1 81 81 ENE 6 9 30.09 1019 3 4 N/A
2:41 pm 14:41 Cloudy with Light Rain 36 2 30 -1 81 81 NE 6 9 30.09 1019 3 4 0.02 0.51
2:44 pm 14:44 Cloudy with Light Rain 36 2 30 -1 81 81 NE 6 9 30.09 1019 3 5 N/A
2:52 pm 14:52 Cloudy with Light Rain 35 1.7 31 -0.6 85 85 NE 6 9 30.09 1019 3 4 0.02 0.51
3:03 pm 15:03 Cloudy with Mist and Fog 36 2 30 -1 81 81 NE 6 9 30.09 1019 3 5 N/A
3:52 pm 15:52 Cloudy with Mist and Fog 36 2.2 31 -0.6 82 82 ENE 7 11 30.10 1019 6 10 N/A
4:52 pm 16:52 Cloudy with Mist and Fog 36 2.2 30 -1.1 79 79 NE 5 7 30.12 1020 6 10 N/A
5:52 pm 17:52 Cloudy with Mist and Fog 36 2.2 30 -1.1 79 79 NE 3 6 30.14 1021 7 11 N/A
6:52 pm 18:52 Cloudy with Mist and Fog 36 2.2 30 -1.1 79 79 ENE 3 6 30.14 1021 6 10 N/A
7:52 pm 19:52 Cloudy with Mist and Fog 36 2.2 31 -0.6 82 82 ESE 3 6 30.16 1021 5 8 N/A
8:52 pm 20:52 Cloudy with Mist and Fog 36 2.2 31 -0.6 82 82 S 3 6 30.16 1021 5 8 N/A
9:36 pm 21:36 Cloudy with Mist and Fog 36 2 30 -1 81 81 S 3 6 30.18 1022 3 5 N/A
9:52 pm 21:52 Cloudy with Mist and Fog 36 2.2 31 -0.6 82 82 SSE 5 7 30.17 1022 4 6 N/A
10:52 pm 22:52 Cloudy with Mist and Fog 36 2.2 32 undefined 86 86 S 5 7 30.17 1022 3 5 N/A
11:47 pm 23:47 Cloudy with Mist and Fog 36 2 32 undefined 87 87 N N/A 30.18 1022 3 4 N/A
11:52 pm 23:52 Cloudy with Mist and Fog 36 2.2 32 undefined 86 86 S 3 6 30.18 1022 3 4 N/A

Powered by AerisWeather